Regional Weather Roundup
Issued by NWS

Home | Current Version | Previous Version | Text Only | Print | Product List | Glossary Off
Versions: 1 2 3 4 5 6 7 8 9 10 11 12 13 14 15 16 17 18 19 20 21 22 23 24 25 26 27 28 29 30 31 32 33 34 35 36 37 38 39 40 41 42 43 44 45 46 47 48 49 50

000
ASUS43 KLMK 280402
RWRKY
KENTUCKY REGIONAL WEATHER ROUNDUP
NATIONAL WEATHER SERVICE LOUISVILLE KY
1200 AM EDT MON JUL 28 2014

NOTE "FAIR" INDICATES FEW OR NO CLOUDS BELOW 12,000 FEET
WITH NO SIGNIFICANT WEATHER AND/OR OBSTRUCTIONS TO VISIBILITY.

KYZ001>023-026-027-061>063-070>075-280500-
WESTERN AND SOUTH CENTRAL KENTUCKY

CITY           SKY/WX    TMP DP  RH WIND       PRES   REMARKS
PADUCAH        CLEAR     79  61  53 NW7       29.92R
HENDERSON      CLEAR     75  57  53 NW9       29.90R
OWENSBORO      CLEAR     77  60  55 N10G18    29.90R
HOPKINSVILLE   CLEAR     79  65  62 NW8       29.90R
BOWLING GREEN  CLEAR     82  65  56 VRB7G16   29.88R
GLASGOW        CLEAR     78  66  68 N7        29.87R
$$

KYZ024-025-028>034-038-045-046-053-280500-
NORTH CENTRAL KENTUCKY

CITY           SKY/WX    TMP DP  RH WIND       PRES   REMARKS
LOUISVILLE/SDF CLEAR     76  60  57 NW17G29   29.85R
LOUISVILLE/LOU CLEAR     77  60  55 NW12      29.85R
FORT KNOX      CLEAR     73  62  67 NW8       29.86R
$$

KYZ035>037-039>044-047>052-055>060-089>105-280500-
NORTHEAST KENTUCKY

CITY           SKY/WX    TMP DP  RH WIND       PRES   REMARKS
LEXINGTON      CLOUDY    72  63  73 W7        29.85R
COVINGTON      PTCLDY    68  64  87 W8        29.82R
FRANKFORT      PTCLDY    72  61  68 W5        29.84R
$$

KYZ054-064>069-076>088-106>120-280500-
SOUTHEAST KENTUCKY

CITY           SKY/WX    TMP DP  RH WIND       PRES   REMARKS
JACKSON        TSTM      69  66  90 VRB7G18   29.86R VSB 3/4
LONDON         PTCLDY    72  68  87 CALM      29.87S
SOMERSET       NOT AVBL
MIDDLESBORO    CLOUDY    69  69 100 CALM      29.87F
MONTICELLO     PTCLDY    70  70 100 CALM      29.89R FOG
$$




USA.gov is the U.S. government's official web portal to all federal, state and local government web resources and services.